Location: Cucq
(50.4773°N, 1.6202°E)
Time: 23:58:16
(UTC+00:00)

Resurs 1-4 Rocket - Pass Details

Date: 07 August 2020
Orbit: 799 x 815 km, 98.6° (Epoch: 23 September)

Event Time Altitude Azimuth Distance (km) Brightness Sun altitude
Rises 03:09:40 0° 6° (N) 3,338 6.2 -11.3°
Reaches altitude 10° 03:12:28 10° 352° (N) 2,400 5.1 -10.9°
Maximum altitude 03:16:28 22° 303° (WNW) 1,684 3.6 -10.5°
Drops below altitude 10° 03:20:27 10° 253° (WSW) 2,381 4.0 -10.0°
Enters shadow 03:20:28 10° 253° (WSW) 2,386 4.0 -10.0°
